Flag Weather past 2 weeks in Ettlingen, Baden-Württemberg, Germany

Now
57 °F

Passing clouds.


Feels Like: 57 °F
Forecast: 46 / 66 °F
Wind: 5 mph from Northeast

Location: Karlsruhe - Baden Wurttemberg

Current Time: Oct 31, 2014 at 2:44:11 PM

Latest Report: Oct 31, 2014 at 2:20 PM


Visibility: N/A

Pressure: 30.27 "Hg

Humidity: 82%

Dew point: 52 °F

Location of EttlingenLocation

Historic Weather in Ettlingen — Graph

°F

Ettlingen temperature yesterday

Maximum temperature yesterday: 63 °F (at 2:20 PM)
Minimum temperature yesterday: 48 °F (at 10:20 PM)
Average temperature yesterday: 55 °F

Past Weeks' High & Low Weather Summary

 TemperatureHumidityPressure
High75 °F (Oct 19, 2:50 PM)100% (Oct 18, 6:50 AM)30.33 "Hg (Oct 18, 6:50 AM)
Low36 °F (Oct 24, 6:20 AM)50% (Oct 19, 3:50 PM)29.65 "Hg (Oct 21, 5:20 PM)
Average53 °F82%30.13 "Hg
* Reported Oct 16 2:20 PM — Oct 31 1:50 PM, Ettlingen, Weather by CustomWeather, © 2014

Note: Actual official high and low records may vary slightly from our data, if they occured in-between our weather recording intervals... More about our weather records

Advertising

Ettlingen weather history for previous 24 hours

 ConditionsComfort  
Time TempWeatherWind HumidityBarometerVisibility
1:50 PM
Oct 31
57 °FPassing clouds.6 mph82%30.27 "HgN/A
1:20 PM55 °FPassing clouds.5 mph94%30.27 "Hg4 mi
12:50 PM54 °FPassing clouds.2 mph94%30.30 "Hg4 mi
12:20 PM52 °FFog.1 mph94%30.30 "Hg3 mi
11:50 AM52 °FFog.3 mph94%30.30 "Hg3 mi
11:20 AM50 °FFog.2 mph94%30.30 "Hg2 mi
10:50 AM50 °FFog.2 mph94%30.30 "Hg2 mi
10:20 AM50 °FFog.1 mph94%30.30 "Hg1 mi
9:50 AM48 °FFog.No wind94%30.30 "Hg1 mi
9:20 AM48 °FFog.2 mph94%30.30 "Hg0 mi
8:50 AM48 °FFog.No wind94%30.30 "Hg0 mi
8:20 AM46 °FFog.1 mph93%30.30 "Hg0 mi
7:50 AM46 °FFog.1 mph100%30.30 "Hg0 mi
7:20 AM46 °FFog.2 mph93%30.27 "Hg0 mi
6:50 AM46 °FFog.No wind93%30.27 "Hg0 mi
6:20 AM46 °FFog.1 mph93%30.27 "Hg0 mi
5:50 AM45 °FFog.2 mph100%30.27 "Hg0 mi
5:20 AM46 °FFog.2 mph93%30.27 "Hg0 mi
4:50 AM48 °FFog.No wind94%30.27 "Hg0 mi
10:50 PM
Oct 30
48 °FFog.2 mph94%30.27 "Hg2 mi
10:20 PM48 °FLight fog.2 mph94%30.30 "Hg4 mi
9:50 PM50 °FSnow. Light fog.2 mph94%30.30 "Hg6 mi
9:20 PM50 °FSnow. Light fog.3 mph94%30.27 "Hg6 mi
8:50 PM50 °FFog.3 mph94%30.27 "HgN/A
8:20 PM50 °FClear.2 mph94%30.27 "Hg6 mi
7:50 PM52 °FFog.2 mph94%30.27 "HgN/A
7:20 PM52 °FFog.3 mph94%30.27 "HgN/A
6:50 PM52 °FClear.3 mph94%30.27 "Hg10 mi
6:20 PM54 °FClear.2 mph88%30.27 "Hg10 mi
5:50 PM55 °FClear.2 mph82%30.27 "Hg10 mi
5:20 PM57 °FClear.2 mph77%30.27 "Hg10 mi
4:50 PM59 °FSunny.3 mph72%30.27 "Hg10 mi
4:20 PM61 °FSunny.5 mph68%30.24 "Hg10 mi
3:50 PM61 °FPassing clouds.5 mph68%30.24 "HgN/A
3:20 PM61 °FSunny.5 mph68%30.24 "Hg10 mi
2:50 PM63 °FSunny.2 mph59%30.24 "Hg10 mi
2:20 PM63 °FScattered clouds.2 mph64%30.24 "HgN/A
Weather by CustomWeather, © 2014

See weather overviewHow to use our weather pages